Location: Unspecified
(0.0000°N, 0.0000°E)
Time: 20:21:28
(UTC+00:00)

Vanguard 2 - Pass Details

Date: 11 December 2017
Orbit: 553 x 2939 km, 32.9° (Epoch: 23 June)

Event Time Altitude Azimuth Distance (km) Brightness Sun altitude
Exits shadow 03:08:21 23° 225° (SW) 3,359 10.6 -37.3°
Maximum altitude 03:11:54 27° 200° (SSW) 3,454 10.8 -36.6°
Drops below altitude 10° 03:23:53 10° 149° (SSE) 5,421 12.4 -33.9°
Sets 03:29:49 0° 138° (SE) 6,668 13.3 -32.6°
